[Date Prev][Date Next][Thread Prev][Thread Next] - [Date Index][Thread Index][Author Index]
2 Line ISS Keps 1-6
- Subject: [sarex] 2 Line ISS Keps 1-6
- From: "Dave Larsen PhD" <doc@xxxxxxxxxxx>
- Date: Wed, 5 Jan 2005 18:44:58 -0800
ISS
1 25544U 98067A 05005.99702133 .00026998 00000-0 20255-3 0 5249
2 25544 51.6402 10.2156 0003465 166.4404 288.4499 15.72399972350183
----
Via the sarex mailing list at AMSAT.ORG courtesy of AMSAT-NA.
To unsubscribe, send "unsubscribe sarex" to Majordomo@amsat.org
AMSAT Home